Princeton, MN

7:23 PM CST on January 23, 2017 (GMT -0600)
Princeton Municipal

Weather History for KPNM - December, 2012

Change the Weather History Date:

Sunday, December 2, 2012

  Actual Average Record
Temperature  
Mean Temperature 32 °F -  
Max Temperature 39 °F 31 °F 55 °F (1998)
Min Temperature 24 °F 17 °F -4 °F (2000)
Degree Days  
Heating Degree Days 34    
Moisture  
Dew Point 30 °F    
Average Humidity 95    
Maximum Humidity 100    
Minimum Humidity 87    
Precipitation  
Precipitation 0.00 in - - ()
Sea Level Pressure  
Sea Level Pressure 29.89 in    
Wind  
Wind Speed 3 mph (SE)    
Max Wind Speed 12 mph    
Max Gust Speed -    
Visibility 1 miles    
Events Fog    
Averages and records for this station are not official NWS values.
T = Trace of Precipitation, MM = Missing Value Source: NWS Daily Summary

Daily Weather History Graph

Daily Weather History Graph

Search for Another Location

Airport or City:

Trip Planner

Search our weather history database for the weather conditions in past years. The results will help you decide how hot, cold, wet, or windy it might be!

Date:

Astronomy

Dec. 02, 2012 Rise Set
Actual Time 7:36 AM CST 4:31 PM CST
Civil Twilight 7:02 AM CST 5:05 PM CST
Nautical Twilight 6:25 AM CST 5:42 PM CST
Astronomical Twilight 5:49 AM CST 6:18 PM CST
Moon 8:25 PM CST (12/2) 10:21 AM CST (12/2)
Length of Visible Light 10h 03m
Length of Day
8h 55m
Waning Gibbous, 85% of the Moon is Illuminated
Dec 2
Waning Gibbous
Dec 6
Last Quarter
Dec 13
New
Dec 19
First Quarter
Dec 28
Full

Hourly Weather History & Observations

Time (CST) Temp. Windchill Dew Point Humidity Pressure Visibility Wind Dir Wind Speed Gust Speed Precip Events Conditions
12:11 AM 30.2 °F - 28.4 °F 93% 29.86 in 0.5 mi Calm Calm - N/A Fog Light Freezing Fog
12:32 AM 30.2 °F - 28.4 °F 93% 29.87 in 1.0 mi Calm Calm - N/A   Overcast
12:51 AM 30.2 °F - 28.4 °F 93% 29.86 in 1.2 mi Calm Calm - N/A   Overcast
1:11 AM 28.4 °F - 28.4 °F 100% 29.87 in 0.2 mi Calm Calm - N/A Fog Light Freezing Fog
1:32 AM 26.6 °F - 26.6 °F 100% 29.87 in 0.2 mi Calm Calm - N/A Fog Light Freezing Fog
1:51 AM 26.6 °F - 26.6 °F 100% 29.87 in 0.2 mi Calm Calm - N/A Fog Light Freezing Fog
2:11 AM 26.6 °F - 24.8 °F 93% 29.88 in 0.2 mi Calm Calm - N/A Fog Light Freezing Fog
2:32 AM 24.8 °F - 24.8 °F 100% 29.88 in 0.2 mi Calm Calm - N/A Fog Light Freezing Fog
2:51 AM 24.8 °F - 24.8 °F 100% 29.88 in 0.2 mi Calm Calm - N/A Fog Light Freezing Fog
3:11 AM 24.8 °F - 24.8 °F 100% 29.88 in 0.2 mi Calm Calm - N/A Fog Light Freezing Fog
3:31 AM 24.8 °F - 23.0 °F 93% 29.89 in 0.2 mi Calm Calm - N/A Fog Light Freezing Fog
3:52 AM 24.8 °F - 23.0 °F 93% 29.90 in 0.2 mi Calm Calm - N/A Fog Light Freezing Fog
4:11 AM 24.8 °F - 24.8 °F 100% 29.89 in 0.2 mi Calm Calm - N/A Fog Light Freezing Fog
4:31 AM 24.8 °F - 24.8 °F 100% 29.90 in 0.2 mi Calm Calm - N/A Fog Light Freezing Fog
4:51 AM 24.8 °F - 24.8 °F 100% 29.91 in 0.2 mi Calm Calm - N/A Fog Light Freezing Fog
5:11 AM 24.8 °F - 23.0 °F 93% 29.92 in 0.2 mi Calm Calm - N/A Fog Light Freezing Fog
5:31 AM 24.8 °F - 23.0 °F 93% 29.92 in 0.2 mi Calm Calm - N/A Fog Light Freezing Fog
5:51 AM 24.8 °F - 23.0 °F 93% 29.92 in 0.2 mi Calm Calm - N/A Fog Light Freezing Fog
6:11 AM 24.8 °F - 23.0 °F 93% 29.93 in 0.2 mi Calm Calm - N/A Fog Light Freezing Fog
6:31 AM 24.8 °F - 23.0 °F 93% 29.94 in 0.2 mi Calm Calm - N/A Fog Light Freezing Fog
6:51 AM 24.8 °F - 23.0 °F 93% 29.95 in 0.2 mi Calm Calm - N/A Fog Light Freezing Fog
7:11 AM 24.8 °F - 23.0 °F 93% 29.95 in 0.2 mi Calm Calm - N/A Fog Light Freezing Fog
7:31 AM 24.8 °F - 23.0 °F 93% 29.95 in 0.2 mi Calm Calm - N/A Fog Light Freezing Fog
7:51 AM 24.8 °F - 23.0 °F 93% 29.96 in 0.2 mi Calm Calm - N/A Fog Light Freezing Fog
8:11 AM 24.8 °F - 23.0 °F 93% 29.96 in 0.2 mi Calm Calm - N/A Fog Light Freezing Fog
8:32 AM 24.8 °F - 24.8 °F 100% 29.97 in 0.2 mi Calm Calm - N/A Fog Light Freezing Fog
8:51 AM 26.6 °F - 24.8 °F 93% 29.97 in 0.2 mi Calm Calm - N/A Fog Light Freezing Fog
9:11 AM 26.6 °F - 24.8 °F 93% 29.98 in 0.2 mi Calm Calm - N/A Fog Light Freezing Fog
9:32 AM 26.6 °F - 24.8 °F 93% 29.96 in 0.2 mi Calm Calm - N/A Fog Light Freezing Fog
9:51 AM 28.4 °F - 26.6 °F 93% 29.98 in 0.2 mi Calm Calm - N/A Fog Light Freezing Fog
10:11 AM 28.4 °F - 28.4 °F 100% 29.96 in 0.5 mi Calm Calm - N/A Fog Light Freezing Fog
10:32 AM 30.2 °F - 28.4 °F 93% 29.96 in 1.0 mi Calm Calm - N/A   Overcast
10:51 AM 30.2 °F 26.7 °F 30.2 °F 100% 29.97 in 1.0 mi SSE 3.5 mph - N/A   Overcast
11:11 AM 32.0 °F - 30.2 °F 93% 29.98 in 0.8 mi Calm Calm - N/A   Overcast
11:32 AM 33.8 °F 29.6 °F 32.0 °F 93% 29.97 in 0.8 mi South 4.6 mph - N/A   Overcast
11:51 AM 33.8 °F 26.4 °F 32.0 °F 93% 29.96 in 0.5 mi SSE 9.2 mph - N/A Fog Fog
12:11 PM 33.8 °F 27.0 °F 33.8 °F 100% 29.96 in 0.5 mi SE 8.1 mph - N/A Fog Fog
12:31 PM 33.8 °F 27.7 °F 33.8 °F 100% 29.95 in 0.5 mi SE 6.9 mph - N/A Fog Fog
12:51 PM 33.8 °F 27.0 °F 33.8 °F 100% 29.93 in 0.5 mi SE 8.1 mph - N/A Fog Fog
1:11 PM 33.8 °F 27.7 °F 33.8 °F 100% 29.92 in 0.5 mi SSE 6.9 mph - N/A Fog Fog
1:31 PM 35.6 °F 29.2 °F 33.8 °F 93% 29.92 in 0.8 mi SE 8.1 mph - N/A   Overcast
1:51 PM 35.6 °F 29.9 °F 33.8 °F 93% 29.91 in 1.0 mi ESE 6.9 mph - N/A   Overcast
2:11 PM 35.6 °F 30.7 °F 33.8 °F 93% 29.93 in 1.2 mi ESE 5.8 mph - N/A   Overcast
2:31 PM 35.6 °F 30.7 °F 33.8 °F 93% 29.93 in 1.2 mi ESE 5.8 mph - N/A   Overcast
2:51 PM 35.6 °F 29.9 °F 33.8 °F 93% 29.92 in 1.2 mi ESE 6.9 mph - N/A   Overcast
3:11 PM 35.6 °F 29.9 °F 33.8 °F 93% 29.91 in 1.2 mi SE 6.9 mph - N/A   Overcast
3:51 PM 35.6 °F 29.2 °F 33.8 °F 93% 29.89 in 1.0 mi ESE 8.1 mph - N/A   Overcast
4:11 PM 35.6 °F 28.6 °F 33.8 °F 93% 29.88 in 1.5 mi ESE 9.2 mph - N/A   Overcast
4:31 PM 35.6 °F 29.9 °F 33.8 °F 93% 29.88 in 2.0 mi SE 6.9 mph - N/A   Overcast
4:51 PM 35.6 °F 29.9 °F 33.8 °F 93% 29.87 in 1.8 mi ESE 6.9 mph - N/A   Overcast
5:11 PM 35.6 °F 29.2 °F 33.8 °F 93% 29.86 in 2.0 mi ESE 8.1 mph - N/A   Overcast
5:31 PM 35.6 °F 30.7 °F 33.8 °F 93% 29.86 in 2.0 mi ESE 5.8 mph - N/A   Overcast
5:51 PM 35.6 °F 29.2 °F 33.8 °F 93% 29.85 in 1.8 mi ESE 8.1 mph - N/A   Overcast
6:11 PM 35.6 °F 29.2 °F 33.8 °F 93% 29.85 in 1.8 mi ESE 8.1 mph - N/A   Overcast
6:31 PM 35.6 °F 28.6 °F 33.8 °F 93% 29.84 in 1.5 mi ESE 9.2 mph - N/A   Overcast
6:52 PM 35.6 °F 27.5 °F 33.8 °F 93% 29.83 in 1.8 mi ESE 11.5 mph - N/A   Overcast
7:11 PM 35.6 °F 28.6 °F 33.8 °F 93% 29.83 in 2.0 mi ESE 9.2 mph - N/A   Overcast
7:31 PM 35.6 °F 28.0 °F 33.8 °F 93% 29.82 in 2.0 mi ESE 10.4 mph - N/A   Overcast
7:52 PM 35.6 °F 28.6 °F 33.8 °F 93% 29.81 in 1.8 mi ESE 9.2 mph - N/A   Overcast
8:11 PM 35.6 °F 28.6 °F 35.6 °F 100% 29.81 in 2.0 mi ESE 9.2 mph - N/A   Overcast
8:31 PM 35.6 °F 29.2 °F 35.6 °F 100% 29.80 in 2.0 mi ESE 8.1 mph - N/A   Overcast
8:52 PM 37.4 °F 29.8 °F 35.6 °F 93% 29.80 in 3.0 mi SE 11.5 mph - N/A   Scattered Clouds
9:11 PM 37.4 °F 31.4 °F 35.6 °F 93% 29.79 in 2.5 mi SE 8.1 mph - N/A   Scattered Clouds
9:31 PM 37.4 °F 31.4 °F 35.6 °F 93% 29.79 in 2.5 mi SE 8.1 mph - N/A   Scattered Clouds
9:51 PM 37.4 °F 30.8 °F 35.6 °F 93% 29.78 in 2.5 mi SE 9.2 mph - N/A   Clear
10:11 PM 37.4 °F 29.8 °F 35.6 °F 93% 29.78 in 3.0 mi SE 11.5 mph - N/A   Clear
10:32 PM 37.4 °F 30.3 °F 35.6 °F 93% 29.77 in 3.0 mi SE 10.4 mph - N/A   Clear
10:51 PM 37.4 °F 30.3 °F 35.6 °F 93% 29.77 in 3.0 mi SE 10.4 mph - N/A   Clear
11:11 PM 39.2 °F 32.5 °F 37.4 °F 93% 29.76 in 4.0 mi SE 10.4 mph - N/A   Clear
11:32 PM 39.2 °F 33.0 °F 35.6 °F 87% 29.76 in 4.0 mi ESE 9.2 mph - N/A   Clear
11:52 PM 39.2 °F 33.0 °F 35.6 °F 87% 29.74 in 4.0 mi ESE 9.2 mph - N/A   Clear